Date String (YYYY-MM-DD hh:mm:ss) UTC,Instrument flags,Ambient pressure (hPa),Sample flow (lpm),Bypass flow (lpm),Sample temperature (°C),Ambient temperature (°C),ASC tube jacket temperature (°C),LED temperature (°C),Box temperature (°C),Sample RH (%),Span deviation,Mass concentration (μg/m³),Mass concentration (μg/m³),Mass concentration (μg/m³)
DateTimeUTC,F1_M11,P_M11,Q1_M11,Q2_M11,T1_M11,T2_M11,T3_M11,T4_M11,T5_M11,U1_M11,ZSPAN_M11,X2_M11,X0_M11,X1_M11
2023-03-08 01:00:00,,0826.5,4.99,0.00,22.3,20.7,00.0,31.1,24.1,12.9,0001.1,0006.99,0009.93,0006.53
2023-03-08 01:01:00,,0826.5,5.00,0.00,22.3,20.7,00.0,31.1,24.1,12.9,0000.9,0006.96,0009.85,0006.50
2023-03-08 01:02:00,,0826.5,5.01,0.00,22.3,20.7,00.0,31.1,24.1,13.0,0000.7,0006.93,0009.25,0006.48
2023-03-08 01:03:00,,0826.5,5.01,0.00,22.3,20.7,00.0,31.1,24.1,13.0,0000.2,0006.93,0009.37,0006.47
2023-03-08 01:04:00,,0826.5,5.00,0.00,22.3,21.0,00.0,31.1,24.2,13.0,0000.2,0006.94,0009.43,0006.47
2023-03-08 01:05:00,,0826.5,5.01,0.00,22.4,22.0,00.0,31.1,24.4,12.9,0000.2,0006.95,0009.49,0006.47
2023-03-08 01:06:00,,0826.5,4.99,0.00,22.5,23.0,00.0,31.1,24.6,12.9,-000.6,0006.91,0009.67,0006.45
2023-03-08 01:07:00,,0826.5,5.02,0.00,22.6,22.9,00.0,31.2,24.6,12.8,-000.8,0006.89,0009.67,0006.44
2023-03-08 01:08:00,,0826.5,4.98,0.00,22.6,22.6,00.0,31.2,24.6,12.7,-000.9,0006.90,0009.68,0006.44
2023-03-08 01:09:00,,0826.5,5.02,0.00,22.6,22.2,00.0,31.2,24.5,12.7,-000.9,0006.90,0009.70,0006.43
2023-03-08 01:10:00,,0826.6,5.00,0.00,22.7,22.0,00.0,31.2,24.5,12.6,-001.3,0006.89,0009.73,0006.43
2023-03-08 01:11:00,,0826.5,4.99,0.00,22.6,21.7,00.0,31.3,24.4,12.5,-001.9,0006.87,0009.71,0006.42
2023-03-08 01:12:00,,0826.5,5.01,0.00,22.6,21.5,00.0,31.3,24.4,12.6,-001.7,0006.86,0009.69,0006.41
2023-03-08 01:13:00,,0826.5,4.99,0.00,22.6,21.4,00.0,31.3,24.4,12.5,-002.0,0006.86,0009.66,0006.41
2023-03-08 01:14:00,,0826.5,5.01,0.00,22.6,21.3,00.0,31.3,24.4,12.5,-001.7,0006.84,0009.55,0006.41
2023-03-08 01:15:00,,0826.5,5.01,0.00,22.6,21.2,00.0,31.3,24.4,12.6,-001.6,0006.85,0009.72,0006.40
2023-03-08 01:16:00,,0826.5,5.00,0.00,22.6,21.1,00.0,31.3,24.3,12.7,-002.0,0006.85,0009.73,0006.39
2023-03-08 01:17:00,,0826.6,5.00,0.00,22.6,21.1,00.0,31.3,24.4,12.7,-001.2,0006.84,0009.51,0006.39
2023-03-08 01:18:00,,0826.6,5.02,0.00,22.6,21.0,00.0,31.3,24.3,12.7,-000.2,0006.83,0009.51,0006.39
2023-03-08 01:19:00,,0826.6,5.00,0.00,22.6,20.9,00.0,31.3,24.3,12.6,-000.8,0006.82,0009.49,0006.39
2023-03-08 01:20:00,,0826.6,4.99,0.00,22.6,20.9,00.0,31.3,24.3,12.6,-001.0,0006.79,0009.44,0006.39
2023-03-08 01:21:00,,0826.7,5.00,0.00,22.6,20.9,00.0,31.3,24.3,12.7,-001.0,0006.78,0009.43,0006.39
2023-03-08 01:22:00,,0826.7,4.98,0.00,22.5,20.9,00.0,31.3,24.3,12.7,-001.3,0006.81,0009.50,0006.41
2023-03-08 01:23:00,,0826.7,5.01,0.00,22.5,20.8,00.0,31.3,24.2,12.8,-001.2,0006.82,0009.52,0006.43
2023-03-08 01:24:00,,0826.7,4.99,0.00,22.5,20.8,00.0,31.3,24.2,12.9,-000.9,0006.82,0009.52,0006.43
2023-03-08 01:25:00,,0826.7,5.00,0.00,22.5,20.8,00.0,31.3,24.2,12.9,-000.8,0006.82,0009.53,0006.43
2023-03-08 01:26:00,,0826.7,5.00,0.00,22.5,20.8,00.0,31.2,24.2,13.0,-000.9,0006.82,0009.38,0006.44
2023-03-08 01:27:00,,0826.7,5.00,0.00,22.5,20.8,00.0,31.2,24.2,13.0,-000.7,0006.80,0009.31,0006.45
2023-03-08 01:28:00,,0826.7,5.00,0.00,22.5,20.7,00.0,31.2,24.2,13.0,-001.3,0006.80,0009.31,0006.46
2023-03-08 01:29:00,,0826.7,4.99,0.00,22.4,20.7,00.0,31.2,24.2,13.0,-002.1,0006.81,0009.23,0006.47
2023-03-08 01:30:00,,0826.7,5.01,0.00,22.4,20.7,00.0,31.2,24.1,13.0,-001.7,0006.84,0009.28,0006.48
2023-03-08 01:31:00,,0826.7,5.00,0.00,22.4,20.7,00.0,31.2,24.1,12.9,-002.0,0006.88,0009.34,0006.50
2023-03-08 01:32:00,,0826.7,5.00,0.00,22.4,20.7,00.0,31.2,24.1,12.8,-001.9,0006.89,0009.32,0006.50
2023-03-08 01:33:00,,0826.7,5.00,0.00,22.4,20.7,00.0,31.2,24.1,12.8,-001.3,0006.88,0009.30,0006.49
2023-03-08 01:34:00,,0826.7,4.99,0.00,22.4,20.6,00.0,31.2,24.1,12.8,-001.2,0006.88,0009.29,0006.48
2023-03-08 01:35:00,,0826.7,5.01,0.00,22.4,20.6,00.0,31.2,24.1,12.7,-001.4,0006.89,0009.40,0006.49
2023-03-08 01:36:00,,0826.7,5.01,0.00,22.3,20.6,00.0,31.1,24.0,12.7,-001.3,0006.91,0009.64,0006.51
2023-03-08 01:37:00,,0826.7,5.00,0.00,22.3,20.5,00.0,31.1,24.0,12.8,-001.4,0006.90,0010.07,0006.50
2023-03-08 01:38:00,,0826.7,5.01,0.00,22.3,20.5,00.0,31.1,24.0,12.8,-001.4,0006.91,0010.05,0006.50
2023-03-08 01:39:00,,0826.7,5.00,0.00,22.3,20.4,00.0,31.1,24.0,12.8,-001.0,0006.93,0010.06,0006.51
2023-03-08 01:40:00,,0826.7,5.00,0.00,22.3,20.8,00.0,31.1,24.1,12.8,-001.1,0006.92,0010.05,0006.52
2023-03-08 01:41:00,,0826.7,4.97,0.00,22.4,21.9,00.0,31.1,24.2,12.8,-001.5,0006.93,0010.03,0006.53
2023-03-08 01:42:00,,0826.7,5.03,0.00,22.5,22.8,00.0,31.1,24.5,12.9,-001.4,0006.90,0010.00,0006.52
2023-03-08 01:43:00,,0826.7,5.01,0.00,22.6,23.0,00.0,31.1,24.5,12.9,-001.3,0006.90,0010.02,0006.52
2023-03-08 01:44:00,,0826.8,5.00,0.00,22.6,22.4,00.0,31.2,24.4,12.8,-001.7,0006.88,0009.96,0006.52
2023-03-08 01:45:00,,0826.8,5.02,0.00,22.5,21.8,00.0,31.2,24.3,12.9,-002.0,0006.90,0009.99,0006.54
2023-03-08 01:46:00,,0826.8,4.99,0.00,22.5,21.4,00.0,31.2,24.2,12.9,-002.1,0006.91,0010.10,0006.54
2023-03-08 01:47:00,,0826.8,5.00,0.00,22.5,21.1,00.0,31.2,24.1,12.8,-002.3,0006.92,0010.58,0006.54
2023-03-08 01:48:00,,0826.8,5.01,0.00,22.4,20.8,00.0,31.2,24.1,12.8,-002.3,0006.94,0010.30,0006.54
2023-03-08 01:49:00,,0826.8,5.00,0.00,22.4,20.6,00.0,31.2,24.0,12.8,-002.4,0006.93,0010.32,0006.55
2023-03-08 01:50:00,,0826.8,5.01,0.00,22.3,20.3,00.0,31.2,23.9,12.8,-002.2,0006.92,0010.29,0006.54
2023-03-08 01:51:00,,0826.8,5.00,0.00,22.3,20.2,00.0,31.1,23.9,12.9,-001.8,0006.94,0010.37,0006.54
2023-03-08 01:52:00,,0826.8,5.01,0.00,22.2,20.1,00.0,31.1,23.8,12.9,-001.6,0006.93,0010.46,0006.52
2023-03-08 01:53:00,,0826.8,5.00,0.00,22.2,20.0,00.0,31.1,23.8,12.9,-001.4,0006.97,0010.83,0006.55
2023-03-08 01:54:00,,0826.8,5.00,0.00,22.2,20.0,00.0,31.1,23.7,12.9,-001.5,0006.99,0010.85,0006.56
2023-03-08 01:55:00,,0826.8,5.00,0.00,22.1,19.9,00.0,31.0,23.7,12.9,-001.4,0007.00,0010.84,0006.57
2023-03-08 01:56:00,,0827.0,5.00,0.00,22.1,19.8,00.0,31.0,23.6,12.9,-001.2,0006.99,0010.84,0006.56
2023-03-08 01:57:00,,0826.9,5.02,0.00,22.1,20.5,00.0,31.0,23.7,13.0,-001.3,0006.96,0010.70,0006.56
2023-03-08 01:58:00,,0826.8,4.97,0.00,22.2,21.7,00.0,30.9,24.0,12.9,-001.0,0006.93,0009.86,0006.56
2023-03-08 01:59:00,,0827.0,5.01,0.00,22.3,22.5,00.0,31.0,24.2,12.9,-001.0,0006.96,0009.87,0006.56
